Date String (YYYY-MM-DD hh:mm:ss) UTC,Instrument flags,absolute air pressure of the measurement (hPa),sample flow rate (lpm),inlet stack bypass flow (lpm),air temperature of the measurement (°C),ambient temperature measured by the external sensor (°C),aerosol sample conditioner tube jacket temperature (°C),OPC LED temperature (°C),internal box temperature (°C),relative humidity of the measurement (%),span deviation,mass concentration of particles derived from Lorenz-Mie calculation of OPC scattering (μg/m³),mass concentration of particles derived from Lorenz-Mie calculation of OPC scattering (μg/m³),mass concentration of particles derived from Lorenz-Mie calculation of OPC scattering (μg/m³)
DateTimeUTC,F1_M11,P_M11,Q1_M11,Q2_M11,T1_M11,T2_M11,T3_M11,T4_M11,T5_M11,U1_M11,ZSPAN_M11,X0_M11,X2_M11,X1_M11
2023-11-09 21:00:00,SystemResetWarning,0833.8,5.00,000.00,025.7,024.9,000.0,034.0,027.0,9.8,0000.0,0008.83,0004.08,0003.65
2023-11-09 21:01:00,SystemResetWarning,0833.8,5.00,000.00,025.7,024.9,000.0,034.0,027.1,9.9,0000.0,0008.50,0004.03,0003.65
2023-11-09 21:02:00,SystemResetWarning,0833.8,4.99,000.00,025.7,024.9,000.0,034.0,027.1,9.8,0000.0,0008.37,0003.99,0003.64
2023-11-09 21:03:00,SystemResetWarning,0833.8,4.99,000.00,025.7,024.9,000.0,034.0,027.1,9.8,0000.0,0008.84,0003.98,0003.65
2023-11-09 21:04:00,SystemResetWarning,0833.8,4.99,000.00,025.7,024.9,000.0,034.0,027.1,9.8,0000.0,0008.53,0004.02,0003.66
2023-11-09 21:05:00,SystemResetWarning,0833.8,5.00,000.00,025.7,024.9,000.0,034.0,027.1,9.7,0000.0,0008.64,0004.06,0003.67
2023-11-09 21:06:00,SystemResetWarning,0833.8,5.01,000.00,025.7,024.9,000.0,034.0,027.1,9.7,0000.0,0010.37,0004.07,0003.69
2023-11-09 21:07:00,SystemResetWarning,0833.7,5.00,000.00,025.7,024.9,000.0,034.0,027.2,9.7,0000.0,0010.56,0004.08,0003.70
2023-11-09 21:08:00,SystemResetWarning,0833.8,5.00,000.00,025.7,024.9,000.0,034.0,027.2,9.9,0000.0,0010.39,0004.07,0003.71
2023-11-09 21:09:00,SystemResetWarning,0833.8,4.99,000.00,025.7,025.0,000.0,034.0,027.2,9.7,0000.0,0009.99,0004.09,0003.73
2023-11-09 21:10:00,SystemResetWarning,0833.8,5.00,000.00,025.8,025.0,000.0,034.0,027.3,9.7,0000.0,0009.89,0004.10,0003.74
2023-11-09 21:11:00,SystemResetWarning,0833.8,5.01,000.00,025.8,025.0,000.0,034.0,027.3,9.6,0000.0,0009.93,0004.11,0003.75
2023-11-09 21:12:00,SystemResetWarning,0833.8,5.01,000.00,025.8,025.0,000.0,034.0,027.2,9.7,0000.0,0010.39,0004.14,0003.76
2023-11-09 21:13:00,SystemResetWarning,0833.8,5.01,000.00,025.8,025.0,000.0,034.1,027.3,9.9,0000.0,0010.64,0004.18,0003.76
2023-11-09 21:14:00,SystemResetWarning,0833.8,5.00,000.00,025.9,025.1,000.0,034.1,027.3,9.7,0000.0,0010.25,0004.18,0003.76
2023-11-09 21:15:00,SystemResetWarning,0833.8,4.99,000.00,025.9,025.1,000.0,034.1,027.3,9.6,0000.0,0009.95,0004.15,0003.75
2023-11-09 21:16:00,SystemResetWarning,0833.8,5.00,000.00,025.9,025.1,000.0,034.1,027.3,9.5,0000.0,0009.80,0004.11,0003.73
2023-11-09 21:17:00,SystemResetWarning,0833.8,5.00,000.00,025.9,025.1,000.0,034.1,027.3,9.6,0000.0,0008.23,0004.11,0003.72
2023-11-09 21:18:00,SystemResetWarning,0833.7,4.99,000.00,025.9,025.1,000.0,034.1,027.3,9.6,0000.0,0007.84,0004.12,0003.71
2023-11-09 21:19:00,SystemResetWarning,0833.8,5.01,000.00,025.9,025.1,000.0,034.1,027.3,9.6,0000.0,0007.97,0004.13,0003.70
2023-11-09 21:20:00,SystemResetWarning,0833.7,5.01,000.00,025.9,025.1,000.0,034.1,027.4,9.7,0000.0,0008.03,0004.13,0003.68
2023-11-09 21:21:00,SystemResetWarning,0833.8,5.00,000.00,025.9,025.1,000.0,034.1,027.4,9.8,0000.0,0007.98,0004.09,0003.65
2023-11-09 21:22:00,SystemResetWarning,0833.8,4.99,000.00,025.9,025.2,000.0,034.2,027.4,9.7,0000.0,0007.83,0004.05,0003.62
2023-11-09 21:23:00,SystemResetWarning,0833.7,5.00,000.00,025.9,025.2,000.0,034.2,027.4,9.7,0000.0,0007.46,0004.05,0003.61
2023-11-09 21:24:00,SystemResetWarning,0833.7,5.00,000.00,026.0,025.2,000.0,034.2,027.4,9.6,0000.0,0007.27,0004.02,0003.59
2023-11-09 21:25:00,SystemResetWarning,0833.7,4.99,000.00,025.9,025.2,000.0,034.2,027.4,9.6,0000.0,0007.77,0004.00,0003.58
2023-11-09 21:26:00,SystemResetWarning,0833.8,5.00,000.00,025.9,025.2,000.0,034.2,027.3,9.6,0000.0,0008.06,0004.00,0003.58
2023-11-09 21:27:00,SystemResetWarning,0833.8,5.00,000.00,026.0,025.2,000.0,034.2,027.3,9.6,0000.0,0008.23,0004.02,0003.59
2023-11-09 21:28:00,SystemResetWarning,0833.7,5.00,000.00,026.0,025.2,000.0,034.2,027.4,9.8,0000.0,0008.25,0004.00,0003.60
2023-11-09 21:29:00,SystemResetWarning,0833.7,5.00,000.00,026.0,025.2,000.0,034.2,027.4,10.0,0000.0,0007.93,0003.97,0003.60
2023-11-09 21:30:00,SystemResetWarning,0833.7,5.00,000.00,026.0,025.2,000.0,034.2,027.4,9.8,0000.0,0007.76,0003.95,0003.60
2023-11-09 21:31:00,SystemResetWarning,0833.7,4.99,000.00,026.0,025.2,000.0,034.2,027.4,9.7,0000.0,0008.01,0003.95,0003.59
2023-11-09 21:32:00,SystemResetWarning,0833.6,5.00,000.00,026.0,025.2,000.0,034.2,027.4,9.9,0000.0,0008.42,0003.96,0003.59
2023-11-09 21:33:00,SystemResetWarning,0833.7,5.01,000.00,026.0,025.2,000.0,034.2,027.4,9.8,0000.0,0008.57,0003.99,0003.60
2023-11-09 21:34:00,SystemResetWarning,0833.7,5.01,000.00,026.0,025.2,000.0,034.2,027.4,9.7,0000.0,0008.70,0003.97,0003.60
2023-11-09 21:35:00,SystemResetWarning,0833.7,5.01,000.00,026.0,025.2,000.0,034.3,027.4,9.6,0000.0,0008.87,0003.98,0003.61
2023-11-09 21:36:00,SystemResetWarning,0833.7,5.00,000.00,026.0,025.2,000.0,034.3,027.4,9.7,0000.0,0008.94,0003.97,0003.60
2023-11-09 21:37:00,SystemResetWarning,0833.7,5.00,000.00,026.0,025.2,000.0,034.3,027.4,9.6,0000.0,0008.35,0003.98,0003.60
2023-11-09 21:38:00,SystemResetWarning,0833.7,5.00,000.00,026.0,025.2,000.0,034.3,027.4,9.6,0000.0,0009.02,0004.00,0003.60
2023-11-09 21:39:00,SystemResetWarning,0833.7,5.00,000.00,026.0,025.2,000.0,034.3,027.4,9.7,0000.0,0009.12,0004.05,0003.62
2023-11-09 21:40:00,SystemResetWarning,0833.7,5.00,000.00,026.0,025.2,000.0,034.3,027.4,9.8,0000.0,0009.41,0004.08,0003.63
2023-11-09 21:41:00,SystemResetWarning,0833.7,5.00,000.00,026.0,025.2,000.0,034.3,027.4,9.7,0000.0,0009.94,0004.13,0003.67
2023-11-09 21:42:00,SystemResetWarning,0833.7,5.00,000.00,026.0,025.2,000.0,034.3,027.4,9.6,0000.0,0010.66,0004.19,0003.69
2023-11-09 21:43:00,SystemResetWarning,0833.7,5.00,000.00,026.0,025.2,000.0,034.3,027.4,9.6,0000.0,0010.30,0004.20,0003.72
2023-11-09 21:44:00,SystemResetWarning,0833.6,5.00,000.00,026.0,025.2,000.0,034.3,027.4,9.8,0000.0,0010.49,0004.24,0003.75
2023-11-09 21:45:00,SystemResetWarning,0833.7,5.00,000.00,026.0,025.2,000.0,034.3,027.4,9.8,0000.0,0010.36,0004.24,0003.78
2023-11-09 21:46:00,SystemResetWarning,0833.7,5.00,000.00,026.0,025.2,000.0,034.3,027.4,9.8,0000.0,0010.11,0004.25,0003.79
2023-11-09 21:47:00,SystemResetWarning,0833.7,5.00,000.00,026.0,025.2,000.0,034.3,027.5,9.9,0000.0,0010.19,0004.26,0003.81
2023-11-09 21:48:00,SystemResetWarning,0833.7,5.00,000.00,026.0,025.2,000.0,034.3,027.4,9.8,0000.0,0009.93,0004.25,0003.83
2023-11-09 21:49:00,SystemResetWarning,0833.7,5.00,000.00,026.0,025.2,000.0,034.3,027.4,9.7,0000.0,0009.56,0004.24,0003.84
2023-11-09 21:50:00,SystemResetWarning,0833.7,5.00,000.00,026.0,025.2,000.0,034.3,027.4,9.8,0000.0,0009.43,0004.17,0003.81
2023-11-09 21:51:00,SystemResetWarning,0833.7,5.00,000.00,026.0,025.2,000.0,034.3,027.4,9.8,0000.0,0009.74,0004.14,0003.79
2023-11-09 21:52:00,SystemResetWarning,0833.7,4.99,000.00,026.0,025.2,000.0,034.3,027.4,10.0,0000.0,0009.41,0004.13,0003.78
2023-11-09 21:53:00,SystemResetWarning,0833.7,5.00,000.00,026.0,025.2,000.0,034.3,027.4,10.0,0000.0,0008.81,0004.10,0003.77
2023-11-09 21:54:00,SystemResetWarning,0833.6,5.00,000.00,026.0,025.2,000.0,034.3,027.4,10.1,0000.0,0008.61,0004.08,0003.77
2023-11-09 21:55:00,SystemResetWarning,0833.7,5.01,000.00,026.0,025.2,000.0,034.3,027.4,10.1,0000.0,0008.31,0004.08,0003.76
2023-11-09 21:56:00,SystemResetWarning,0833.7,5.01,000.00,026.0,025.2,000.0,034.3,027.4,10.2,0000.0,0008.28,0004.09,0003.76
2023-11-09 21:57:00,SystemResetWarning,0833.7,4.99,000.00,026.0,025.2,000.0,034.3,027.4,10.3,0000.0,0008.43,0004.11,0003.77
2023-11-09 21:58:00,SystemResetWarning,0833.7,4.99,000.00,026.0,025.2,000.0,034.3,027.4,10.2,0000.0,0008.15,0004.13,0003.77
2023-11-09 21:59:00,SystemResetWarning,0833.7,5.01,000.00,026.0,025.2,000.0,034.3,027.3,10.0,0000.0,0008.21,0004.18,0003.78
